Tioga, ND

6:58 AM CDT on August 30, 2016 (GMT -0500)
Tioga Municipal Airport

Weather History for KD60 - December, 2013

Change the Weather History Date:

Sunday, December 8, 2013

  Actual Average (KISN) Record (KISN)
Temperature  
Mean Temperature -14 °F 16 °F  
Max Temperature -4 °F 26 °F 52 °F (1925)
Min Temperature -23 °F 6 °F -31 °F (1927)
Degree Days  
Heating Degree Days 78 49  
Month to date heating degree days 382  
Since 1 July heating degree days 2544  
Cooling Degree Days 0 0  
Month to date cooling degree days 0  
Year to date cooling degree days 456  
Moisture  
Dew Point -19 °F    
Average Humidity 78    
Maximum Humidity 84    
Minimum Humidity 71    
Precipitation  
Precipitation 0.00 in 0.01 in 0.26 in (1966)
Month to date precipitation 0.15  
Year to date precipitation 13.90  
Sea Level Pressure  
Sea Level Pressure 30.00 in    
Wind  
Wind Speed 11 mph (WSW)    
Max Wind Speed 25 mph    
Max Gust Speed 32 mph    
Visibility 10 miles    
Events Rain , Snow    
T = Trace of Precipitation, MM = Missing Value Source: NWS Daily Summary

Daily Weather History Graph

Daily Weather History Graph

Search for Another Location

Airport or City:

Trip Planner

Search our weather history database for the weather conditions in past years. The results will help you decide how hot, cold, wet, or windy it might be!

Date:

Astronomy

Dec. 08, 2013 Rise Set
Actual Time 8:30 AM CST 4:56 PM CST
Civil Twilight 7:53 AM CST 5:33 PM CST
Nautical Twilight 7:14 AM CST 6:13 PM CST
Astronomical Twilight 6:36 AM CST 6:51 PM CST
Moon 12:29 PM CST (12/8) No Moon Set
Length of Visible Light 9h 39m
Length of Day
8h 26m
Waxing Crescent, 40% of the Moon is Illuminated
Dec 8
Waxing Crescent
Dec 9
First Quarter
Dec 17
Full
Dec 25
Last Quarter
Jan 1
New

Hourly Weather History & Observations

Time (CST) Temp. Windchill Dew Point Humidity Pressure Visibility Wind Dir Wind Speed Gust Speed Precip Events Conditions
12:15 AM -18.4 °F -37.9 °F -23.8 °F 76% 30.19 in 10.0 mi SW 9.2 mph - N/A   Clear
12:35 AM -20.2 °F -41.3 °F -23.8 °F 83% 30.18 in 10.0 mi SW 10.4 mph - N/A   Clear
12:55 AM -20.2 °F -40.1 °F -25.6 °F 76% 30.17 in 10.0 mi SW 9.2 mph - N/A   Clear
1:15 AM -20.2 °F -41.3 °F -25.6 °F 76% 30.15 in 10.0 mi SW 10.4 mph - N/A   Clear
1:35 AM -22.0 °F -35.6 °F -27.4 °F 76% 30.14 in 10.0 mi West 4.6 mph - N/A   Clear
1:55 AM -22.0 °F -35.6 °F -27.4 °F 76% 30.12 in 10.0 mi West 4.6 mph - N/A   Clear
2:15 AM -23.8 °F -35.0 °F -29.2 °F 76% 30.12 in 10.0 mi SW 3.5 mph - N/A   Clear
2:35 AM -22.0 °F -41.0 °F -27.4 °F 76% 30.11 in 10.0 mi SSW 8.1 mph - N/A   Clear
2:55 AM -22.0 °F -37.7 °F -27.4 °F 76% 30.11 in 10.0 mi SW 5.8 mph - N/A   Clear
3:15 AM -20.2 °F -40.1 °F -25.6 °F 76% 30.10 in 10.0 mi SSW 9.2 mph - N/A   Clear
3:35 AM -22.0 °F -35.6 °F -25.6 °F 83% 30.09 in 10.0 mi SSW 4.6 mph - N/A   Clear
3:55 AM -22.0 °F - -27.4 °F 76% 30.08 in 10.0 mi Calm Calm - N/A   Clear
4:15 AM -22.0 °F -41.0 °F -27.4 °F 76% 30.07 in 10.0 mi WSW 8.1 mph - N/A   Clear
4:35 AM -22.0 °F -41.0 °F -25.6 °F 83% 30.06 in 10.0 mi SW 8.1 mph - N/A   Clear
4:55 AM -22.0 °F -37.7 °F -27.4 °F 76% 30.04 in 10.0 mi SSW 5.8 mph - N/A   Clear
5:15 AM -22.0 °F -43.6 °F -25.6 °F 83% 30.03 in 10.0 mi SW 10.4 mph - N/A   Clear
5:35 AM -20.2 °F -41.3 °F -25.6 °F 76% 30.02 in 10.0 mi SSW 10.4 mph - N/A   Clear
5:55 AM -20.2 °F -41.3 °F -25.6 °F 76% 30.02 in 10.0 mi SSW 10.4 mph - N/A   Clear
6:15 AM -20.2 °F -35.5 °F -25.6 °F 76% 30.01 in 10.0 mi SSW 5.8 mph - N/A   Clear
6:35 AM -22.0 °F -42.3 °F -25.6 °F 83% 30.00 in 10.0 mi SW 9.2 mph - N/A   Clear
6:55 AM -20.2 °F -35.5 °F -25.6 °F 76% 30.00 in 10.0 mi SW 5.8 mph - N/A   Clear
7:15 AM -22.0 °F - -27.4 °F 76% 30.00 in 10.0 mi Calm Calm - N/A   Clear
7:35 AM -20.2 °F -35.5 °F -25.6 °F 76% 29.99 in 10.0 mi SSW 5.8 mph - N/A   Clear
7:55 AM -18.4 °F -36.6 °F -23.8 °F 76% 29.98 in 10.0 mi SSW 8.1 mph - N/A   Clear
8:15 AM -18.4 °F -39.1 °F -23.8 °F 76% 29.97 in 10.0 mi SW 10.4 mph - N/A   Clear
8:35 AM -18.4 °F -42.1 °F -23.8 °F 76% 29.96 in 10.0 mi SSW 13.8 mph - N/A   Clear
8:55 AM -18.4 °F -41.2 °F -22.0 °F 84% 29.96 in 10.0 mi SSW 12.7 mph - N/A   Clear
9:15 AM -16.6 °F -38.9 °F -22.0 °F 76% 29.96 in 10.0 mi SW 12.7 mph - N/A   Clear
9:35 AM -16.6 °F -37.9 °F -20.2 °F 84% 29.96 in 10.0 mi SW 11.5 mph - N/A   Clear
9:55 AM -16.6 °F -38.9 °F -20.2 °F 84% 29.95 in 10.0 mi SSW 12.7 mph - N/A   Clear
10:15 AM -16.6 °F -35.7 °F -20.2 °F 84% 29.96 in 10.0 mi SSW 9.2 mph - N/A   Clear
10:35 AM -14.8 °F -36.6 °F -20.2 °F 77% 29.94 in 10.0 mi SSW 12.7 mph - N/A   Clear
10:55 AM -13.0 °F -31.3 °F -18.4 °F 77% 29.95 in 10.0 mi SW 9.2 mph - N/A   Clear
11:15 AM -13.0 °F -32.4 °F -18.4 °F 77% 29.95 in 10.0 mi SW 10.4 mph - N/A   Clear
11:35 AM -13.0 °F -35.2 °F -16.6 °F 84% 29.93 in 10.0 mi WSW 13.8 mph - N/A   Clear
11:55 AM -11.2 °F -31.1 °F -14.8 °F 84% 29.93 in 10.0 mi WSW 11.5 mph - N/A   Clear
12:15 PM -9.4 °F -30.6 °F -13.0 °F 84% 29.92 in 10.0 mi WSW 13.8 mph - N/A   Clear
12:35 PM -9.4 °F -32.1 °F -14.8 °F 77% 29.92 in 10.0 mi West 16.1 mph - N/A   Clear
12:55 PM -9.4 °F -32.8 °F -14.8 °F 77% 29.91 in 10.0 mi West 17.3 mph 24.2 mph N/A   Clear
1:15 PM -9.4 °F -32.8 °F -14.8 °F 77% 29.92 in 10.0 mi West 17.3 mph 20.7 mph N/A   Clear
1:35 PM -9.4 °F -32.8 °F -14.8 °F 77% 29.92 in 10.0 mi West 17.3 mph - N/A   Clear
1:55 PM -7.6 °F -29.8 °F -13.0 °F 77% 29.91 in 10.0 mi West 16.1 mph - N/A   Clear
2:15 PM -7.6 °F -30.5 °F -13.0 °F 77% 29.91 in 10.0 mi West 17.3 mph - N/A   Clear
2:35 PM -5.8 °F -28.2 °F -13.0 °F 71% 29.92 in 10.0 mi WNW 17.3 mph 20.7 mph N/A   Clear
2:55 PM -5.8 °F -26.8 °F -13.0 °F 71% 29.92 in 10.0 mi WNW 15.0 mph - N/A Snow Light Snow
3:15 PM -4.0 °F -24.5 °F - N/A% 29.92 in 10.0 mi West 15.0 mph - N/A   Partly Cloudy
3:35 PM -4.0 °F -22.1 °F -11.2 °F 71% 29.93 in 10.0 mi West 11.5 mph - N/A   Partly Cloudy
3:55 PM -5.8 °F -27.5 °F -11.2 °F 77% 29.93 in 10.0 mi West 16.1 mph - N/A Snow Light Snow
4:15 PM -5.8 °F -24.4 °F -11.2 °F 77% 29.94 in 5.0 mi West 11.5 mph - N/A Snow Light Snow
4:35 PM -4.0 °F -20.2 °F -11.2 °F 71% 29.95 in 8.0 mi West 9.2 mph - N/A Snow Light Snow
4:55 PM -4.0 °F -23.7 °F -9.4 °F 78% 29.95 in 6.0 mi WNW 13.8 mph - N/A Snow Light Snow
5:15 PM -5.8 °F -27.5 °F -11.2 °F 77% 29.95 in 10.0 mi NW 16.1 mph 21.9 mph N/A   Partly Cloudy
5:35 PM -7.6 °F -27.5 °F - N/A% 29.96 in 10.0 mi NW 12.7 mph 19.6 mph N/A   Clear
5:55 PM -7.6 °F -29.8 °F -11.2 °F 84% 29.96 in 10.0 mi NW 16.1 mph - N/A   Clear
6:15 PM -7.6 °F -32.9 °F -11.2 °F 84% 29.97 in 10.0 mi NW 21.9 mph 26.5 mph N/A   Clear
6:35 PM -7.6 °F -32.3 °F -13.0 °F 77% 29.98 in 10.0 mi NW 20.7 mph 24.2 mph N/A   Mostly Cloudy
6:55 PM -7.6 °F -34.4 °F -13.0 °F 77% 29.98 in 10.0 mi NW 25.3 mph 32.2 mph N/A Snow Light Snow
7:15 PM -7.6 °F -32.9 °F -13.0 °F 77% 29.99 in 10.0 mi NW 21.9 mph 27.6 mph N/A   Scattered Clouds
7:35 PM -7.6 °F -33.4 °F -13.0 °F 77% 30.00 in 6.0 mi NW 23.0 mph 26.5 mph N/A Rain Light Freezing Rain
7:55 PM -7.6 °F -31.7 °F -13.0 °F 77% 30.01 in 10.0 mi WNW 19.6 mph - N/A   Clear
8:15 PM -9.4 °F -29.8 °F -13.0 °F 84% 30.03 in 10.0 mi WNW 12.7 mph - N/A   Scattered Clouds
8:35 PM -9.4 °F -32.1 °F -13.0 °F 84% 30.02 in 10.0 mi WNW 16.1 mph - N/A   Mostly Cloudy
8:55 PM -9.4 °F -29.8 °F -13.0 °F 84% 30.03 in 10.0 mi WNW 12.7 mph - N/A   Mostly Cloudy
9:15 PM -11.2 °F -35.2 °F -14.8 °F 84% 30.03 in 10.0 mi WNW 17.3 mph - N/A   Scattered Clouds
9:35 PM -11.2 °F -32.1 °F -14.8 °F 84% 30.03 in 10.0 mi West 12.7 mph - N/A   Scattered Clouds
9:55 PM -11.2 °F -31.1 °F -14.8 °F 84% 30.04 in 10.0 mi West 11.5 mph 19.6 mph N/A   Overcast
10:15 PM -11.2 °F -32.9 °F -16.6 °F 77% 30.03 in 10.0 mi WNW 13.8 mph - N/A Snow Light Snow
10:35 PM -11.2 °F -34.4 °F -16.6 °F 77% 30.03 in 9.0 mi WNW 16.1 mph 20.7 mph N/A   Mostly Cloudy
10:55 PM -11.2 °F -33.7 °F -16.6 °F 77% 30.03 in 10.0 mi West 15.0 mph - N/A   Overcast
11:15 PM -11.2 °F -33.7 °F -16.6 °F 77% 30.03 in 10.0 mi WNW 15.0 mph 20.7 mph N/A   Mostly Cloudy
11:35 PM -11.2 °F -35.2 °F -16.6 °F 77% 30.03 in 10.0 mi West 17.3 mph - N/A   Partly Cloudy
11:55 PM -13.0 °F -35.2 °F -16.6 °F 84% 30.03 in 10.0 mi West 13.8 mph - N/A   Clear